Location: Cheyres
(46.8153°N, 6.7877°E)
Time: 13:39:48
(UTC+00:00)

SJ 16-02 - Pass Details

Date: 11 May 2021
Orbit: 606 x 616 km, 75.0° (Epoch: 18 June)

Event Time Altitude Azimuth Distance (km) Brightness Sun altitude
Exits shadow 19:42:35 - 120° (ESE) 2,030 3.3 -7.5°
Reaches altitude 10° 19:42:53 10° 117° (ESE) 1,977 3.3 -7.6°
Maximum altitude 19:44:39 12° 93° (E) 1,836 3.3 -7.8°
Drops below altitude 10° 19:46:24 10° 70° (ENE) 1,984 3.6 -8.0°
Sets 19:49:56 0° 40° (NE) 2,897 4.8 -8.5°
